DG5MLB Weather Reports


time (UTC)temp
C
wind
direction
speed
KPH
gust
KPH
rain 1hr
cm
rain 24hr
cm
rain mn
cm
humidity
%
barometer
mb
20260507081528 11 254 3.2 17.7 0.00 0.51 0.00 69 1011.9
20260507080010 11 216 4.8 24.1 0.00 0.51 0.00 69 1011.8
20260507074519 12 194 4.8 30.6 0.00 0.51 0.00 69 1011.6
20260507073006 11 278 4.8 27.4 0.00 0.51 0.00 72 1011.5
20260507071519 11 254 4.8 22.5 0.00 0.51 0.00 72 1011.4
20260507070011 11 247 4.8 27.4 0.00 0.51 0.00 72 1011.3
20260507064523 11 243 1.6 25.7 0.00 0.51 0.00 73 1011.3
20260507063009 11 242 11.3 24.1 0.00 0.51 0.00 75 1011.1
20260507061522 10 258 3.2 20.9 0.00 0.51 0.00 77 1011.0
20260507060011 10 234 3.2 19.3 0.00 0.51 0.00 78 1011.0
20260507054505 10 269 3.2 20.9 0.00 0.51 0.00 80 1010.8
20260507053012 9 259 6.4 19.3 0.00 0.51 0.00 82 1010.7
20260507051507 8 217 4.8 17.7 0.00 0.51 0.00 84 1010.5
20260507050012 8 266 3.2 14.5 0.00 0.51 0.00 85 1010.4
20260507044508 8 235 1.6 11.3 0.00 0.51 0.00 85 1010.2
20260507043011 8 220 0.0 0.0 0.00 0.51 0.00 85 1010.0
20260507041536 8 220 0.0 0.0 0.00 0.51 0.00 85 1010.0
20260507040009 7 220 0.0 0.0 0.00 0.51 0.00 85 1009.9
20260507034620 7 220 0.0 0.0 0.00 0.51 0.00 85 1009.8
20260507033014 7 220 0.0 0.0 0.00 0.51 0.00 84 1009.8
20260507031523 7 220 0.0 0.0 0.00 0.51 0.00 84 1009.8
20260507030014 8 220 0.0 0.0 0.00 0.51 0.00 83 1009.8
20260507024610 8 220 0.0 0.0 0.00 0.51 0.00 82 1009.7
20260507023016 8 220 0.0 3.2 0.00 0.51 0.00 82 1009.7
20260507021504 8 252 0.0 9.7 0.00 0.51 0.00 82 1009.5
20260507020015 8 234 0.0 3.2 0.00 0.51 0.00 82 1009.4
20260507014515 8 243 0.0 0.0 0.00 0.51 0.00 82 1009.2
20260507013032 8 231 0.0 9.7 0.00 0.51 0.00 82 1009.2
20260507011505 8 207 1.6 8.0 0.00 0.51 0.00 83 1009.2
20260507010018 8 220 1.6 11.3 0.00 0.51 0.00 83 1009.3
20260507004505 8 232 1.6 6.4 0.00 0.51 0.00 83 1009.1
20260507003019 8 217 3.2 8.0 0.00 0.51 0.00 83 1009.0
20260507001508 8 188 0.0 6.4 0.00 0.51 0.00 82 1009.0
20260507000026 9 211 0.0 8.0 0.00 0.51 0.00 82 1009.1
20260506234507 9 228 0.0 11.3 0.00 0.51 0.00 82 1009.0
20260506233023 9 221 0.0 8.0 0.00 0.51 0.00 81 1009.1
20260506231509 9 221 0.0 8.0 0.00 0.51 0.00 81 1009.1
20260506230005 9 219 1.6 11.3 0.00 0.51 0.00 81 1009.0
20260506224513 9 209 4.8 14.5 0.00 0.51 0.00 81 1009.1
20260506223021 9 215 1.6 12.9 0.00 0.51 0.00 81 1008.9
20260506221510 9 148 3.2 11.3 0.00 0.51 0.00 81 1008.9
20260506220022 9 217 4.8 11.3 0.00 0.51 0.00 81 1008.7
20260506214509 9 208 3.2 12.9 0.00 0.51 0.51 81 1008.5
20260506213102 9 209 6.4 16.1 0.00 0.51 0.51 82 1008.4
20260506211510 9 232 3.2 11.3 0.00 0.51 0.51 83 1008.4
20260506210021 9 192 1.6 11.3 0.00 0.51 0.51 83 1008.4
20260506204510 10 218 1.6 11.3 0.00 0.97 0.51 82 1008.2
20260506203002 10 212 3.2 11.3 0.00 0.97 0.51 81 1008.0
20260506201512 10 219 3.2 14.5 0.00 0.97 0.51 81 1007.8
20260506200004 10 260 4.8 14.5 0.00 0.97 0.51 81 1007.6
20260506194515 10 233 4.8 14.5 0.00 0.97 0.51 80 1007.7
20260506193022 10 239 3.2 20.9 0.00 0.97 0.51 79 1007.5
20260506191517 10 219 8.0 20.9 0.00 0.97 0.51 79 1007.4
20260506190103 10 222 1.6 12.9 0.00 0.97 0.51 79 1007.3
20260506184515 10 186 4.8 17.7 0.00 0.97 0.51 79 1006.8
20260506183006 10 261 9.7 20.9 0.00 0.97 0.51 78 1006.5
20260506181519 10 246 9.7 24.1 0.00 0.97 0.51 77 1006.2
20260506180005 11 280 12.9 32.2 0.00 0.97 0.51 77 1006.2
20260506174514 11 279 3.2 24.1 0.00 0.97 0.51 78 1005.9
20260506173005 11 242 3.2 25.7 0.00 0.97 0.51 79 1005.5
20260506171535 11 272 4.8 29.0 0.00 0.97 0.51 79 1005.2
20260506170008 12 238 8.0 38.6 0.00 0.97 0.51 78 1004.9
20260506164518 14 283 4.8 14.5 0.00 0.97 0.51 83 1004.5
20260506163017 14 193 0.0 6.4 0.00 0.97 0.51 83 1003.9
20260506161512 14 182 0.0 6.4 0.03 0.97 0.51 81 1003.7
20260506160010 14 82 0.0 0.0 0.08 0.97 0.51 83 1003.6
20260506154520 13 89 0.0 0.0 0.23 0.97 0.51 85 1003.4
20260506153010 12 52 0.0 4.8 0.43 0.97 0.51 85 1003.3
20260506151520 12 61 0.0 4.8 0.46 0.94 0.48 84 1003.1
20260506150009 12 72 0.0 3.2 0.41 0.86 0.41 82 1004.2
20260506144603 12 267 0.0 12.9 0.28 0.71 0.28 80 1004.4
20260506143011 13 276 9.7 32.2 0.05 0.51 0.05 74 1003.6
20260506141520 16 315 9.7 17.7 0.00 0.46 0.00 66 1002.3
20260506140010 17 339 0.0 8.0 0.00 0.46 0.00 61 1002.3
20260506134555 17 40 0.0 6.4 0.00 0.46 0.00 60 1002.2
20260506133012 18 355 0.0 16.1 0.00 0.46 0.00 58 1002.2
20260506131504 18 107 1.6 14.5 0.00 0.46 0.00 59 1002.1
20260506130015 17 291 0.0 11.3 0.00 0.46 0.00 59 1002.3
20260506124505 17 35 3.2 9.7 0.00 0.46 0.00 59 1002.5
20260506123012 17 20 0.0 11.3 0.00 0.46 0.00 61 1002.6
20260506121511 17 71 1.6 9.7 0.00 0.46 0.00 60 1002.7
20260506120017 17 43 1.6 9.7 0.00 0.46 0.00 60 1002.9
20260506114504 17 49 0.0 0.0 0.00 0.46 0.00 59 1003.1
20260506113014 17 107 0.0 0.0 0.00 0.46 0.00 60 1003.3
20260506111622 17 28 0.0 0.0 0.00 0.46 0.00 59 1003.3
20260506110017 17 111 0.0 0.0 0.00 0.46 0.00 57 1003.6
20260506104502 17 111 0.0 0.0 0.00 0.46 0.00 58 1003.8
20260506103023 17 70 0.0 0.0 0.00 0.46 0.00 59 1003.8
20260506101504 16 37 0.0 0.0 0.00 0.46 0.00 61 1004.1
20260506100029 16 344 0.0 0.0 0.00 0.46 0.00 60 1004.0
20260506094509 16 44 0.0 0.0 0.00 0.46 0.00 61 1004.2
20260506093015 16 117 0.0 0.0 0.00 0.46 0.00 60 1004.2
20260506091505 16 74 0.0 0.0 0.00 0.46 0.00 61 1004.1
20260506090018 16 50 0.0 0.0 0.00 0.46 0.00 62 1004.2
20260506084506 16 95 0.0 0.0 0.00 0.46 0.00 64 1004.3
20260506083018 16 333 0.0 0.0 0.00 0.46 0.00 64 1004.2